When you browse on this site, cookies collect data to enhance your experience and personalize the content and advertising you see.
Visit our Privacy Policy to learn more. By continuing to use the site, you agree to this use of cookies and data.
  • In Hungary
  • List of Countries
  • For 7 days
  • Water Temperature
  • Satellite Maps
  • Weather Map
  • News
  • Weather Widgets
  • user-avatar
    Login

    Hourly Weather Sylhet

    Today, 14 December, Friday

    Time Temperature Precipitation Wind Pressure Humidity
    00:00 +21°C° 0 mm 1 mps 761 mmHg 52%
    01:00 +21°C° 0 mm 1 mps 761 mmHg 51%
    02:00 +21°C° 0 mm 1 mps 761 mmHg 51%
    03:00 +21°C° 0 mm 1 mps 761 mmHg 51%
    04:00 +20°C° 0 mm 1 mps 761 mmHg 51%
    05:00 +20°C° 0 mm 1 mps 761 mmHg 52%
    06:00 +19°C° 0 mm 1 mps 761 mmHg 56%
    07:00 +21°C° 0 mm 1 mps 761 mmHg 52%
    08:00 +23°C° 0 mm 1 mps 761 mmHg 48%
    09:00 +25°C° 0 mm 1 mps 761 mmHg 44%
    10:00 +26°C° 0 mm 1 mps 761 mmHg 42%
    11:00 +28°C° 0 mm 1 mps 761 mmHg 40%
    12:00 +30°C° 0 mm 1 mps 761 mmHg 37%
    13:00 +30°C° 0 mm 1 mps 760 mmHg 36%
    14:00 +30°C° 0 mm 1 mps 760 mmHg 36%
    15:00 +30°C° 0 mm 1 mps 759 mmHg 35%
    16:00 +28°C° 0 mm 1 mps 759 mmHg 39%
    17:00 +26°C° 0 mm 1 mps 760 mmHg 43%
    18:00 +24°C° 0 mm 1 mps 760 mmHg 47%
    19:00 +23°C° 0 mm 1 mps 760 mmHg 48%
    20:00 +23°C° 0 mm 1 mps 761 mmHg 49%
    21:00 +22°C° 0 mm 1 mps 761 mmHg 50%
    22:00 +22°C° 0 mm 1 mps 761 mmHg 50%
    23:00 +21°C° 0 mm 1 mps 762 mmHg 51%

    Tomorrow, 15 December, Saturday

    Time Temperature Precipitation Wind Pressure Humidity
    00:00 +21°C° 0 mm 1 mps 762 mmHg 52%
    01:00 +21°C° 0 mm 1 mps 762 mmHg 52%
    02:00 +21°C° 0 mm 1 mps 761 mmHg 52%
    03:00 +21°C° 0 mm 1 mps 761 mmHg 52%
    04:00 +20°C° 0 mm 1 mps 761 mmHg 52%
    05:00 +20°C° 0 mm 1 mps 761 mmHg 53%
    06:00 +19°C° 0 mm 1 mps 761 mmHg 54%
    07:00 +20°C° 0 mm 1 mps 762 mmHg 53%
    08:00 +22°C° 0 mm 1 mps 762 mmHg 51%
    09:00 +23°C° 0 mm 1 mps 763 mmHg 49%
    10:00 +24°C° 0 mm 1 mps 762 mmHg 47%
    11:00 +25°C° 0 mm 1 mps 762 mmHg 44%
    12:00 +27°C° 0 mm 1 mps 762 mmHg 41%
    13:00 +27°C° 0 mm 1 mps 761 mmHg 42%
    14:00 +27°C° 0 mm 1 mps 761 mmHg 44%
    15:00 +27°C° 0 mm 1 mps 760 mmHg 45%
    16:00 +26°C° 0 mm 1 mps 760 mmHg 48%
    17:00 +24°C° 0 mm 1 mps 761 mmHg 52%
    18:00 +21°C° 0 mm 0 mps 761 mmHg 55%
    19:00 +21°C° 0 mm 0 mps 761 mmHg 55%
    20:00 +23°C° 0 mm 1 mps 762 mmHg 54%
    21:00 +23°C° 0 mm 1 mps 762 mmHg 53%
    22:00 +23°C° 0 mm 1 mps 762 mmHg 52%
    23:00 +23°C° 0 mm 1 mps 762 mmHg 50%

    Day after tomorrow, 16 December, Sunday

    Time Temperature Precipitation Wind Pressure Humidity
    00:00 +23°C° 0 mm 1 mps 762 mmHg 49%
    01:00 +23°C° 0 mm 1 mps 762 mmHg 48%
    02:00 +22°C° 0 mm 1 mps 762 mmHg 47%
    03:00 +22°C° 0 mm 1 mps 761 mmHg 46%
    04:00 +22°C° 0 mm 1 mps 761 mmHg 46%
    05:00 +22°C° 0 mm 1 mps 761 mmHg 45%
    06:00 +22°C° 0 mm 1 mps 761 mmHg 45%
    07:00 +22°C° 0 mm 1 mps 762 mmHg 48%
    08:00 +23°C° 0 mm 1 mps 763 mmHg 50%
    09:00 +23°C° 0 mm 2 mps 763 mmHg 52%
    10:00 +23°C° 0 mm 1 mps 763 mmHg 52%
    11:00 +24°C° 0 mm 1 mps 763 mmHg 51%
    12:00 +24°C° 0 mm 1 mps 763 mmHg 51%
    13:00 +24°C° 0 mm 1 mps 762 mmHg 51%
    14:00 +23°C° 0 mm 1 mps 762 mmHg 52%
    15:00 +23°C° 0 mm 1 mps 762 mmHg 53%
    16:00 +23°C° 0 mm 1 mps 762 mmHg 53%
    17:00 +22°C° 0 mm 1 mps 762 mmHg 53%
    18:00 +22°C° 0 mm 1 mps 762 mmHg 53%
    19:00 +22°C° 0 mm 1 mps 762 mmHg 53%
    20:00 +22°C° 0 mm 1 mps 763 mmHg 54%
    21:00 +22°C° 0 mm 1 mps 763 mmHg 54%
    22:00 +21°C° 0 mm 1 mps 762 mmHg 54%
    23:00 +21°C° 0 mm 1 mps 762 mmHg 55%

    17 December, Monday

    Time Temperature Precipitation Wind Pressure Humidity
    00:00 +21°C° 0 mm 1 mps 762 mmHg 56%
    01:00 +21°C° 0 mm 2 mps 761 mmHg 56%
    02:00 +21°C° 0 mm 2 mps 761 mmHg 56%
    03:00 +21°C° 0 mm 2 mps 760 mmHg 57%
    04:00 +21°C° 0 mm 2 mps 760 mmHg 58%
    05:00 +21°C° 0 mm 2 mps 760 mmHg 59%
    06:00 +22°C° 0 mm 1 mps 761 mmHg 61%
    07:00 +21°C° 0 mm 2 mps 761 mmHg 61%
    08:00 +21°C° 0 mm 2 mps 762 mmHg 61%
    09:00 +21°C° 0 mm 2 mps 763 mmHg 61%
    10:00 +21°C° 0.1 mm 2 mps 762 mmHg 62%
    11:00 +20°C° 0.1 mm 2 mps 762 mmHg 62%
    12:00 +20°C° 0.1 mm 3 mps 762 mmHg 63%
    13:00 +20°C° 0.1 mm 2 mps 761 mmHg 63%
    14:00 +20°C° 0.1 mm 2 mps 761 mmHg 63%
    15:00 +22°C° 0.1 mm 1 mps 760 mmHg 63%
    16:00 +21°C° 0 mm 1 mps 760 mmHg 64%
    17:00 +21°C° 0 mm 1 mps 760 mmHg 66%
    18:00 +21°C° 0 mm 1 mps 760 mmHg 67%
    19:00 +21°C° 0.1 mm 1 mps 760 mmHg 69%
    20:00 +21°C° 0.1 mm 1 mps 761 mmHg 71%
    21:00 +20°C° 0.1 mm 2 mps 761 mmHg 73%
    22:00 +20°C° 0.2 mm 2 mps 761 mmHg 75%
    23:00 +20°C° 0.2 mm 2 mps 761 mmHg 77%

    18 December, Tuesday

    Time Temperature Precipitation Wind Pressure Humidity
    00:00 +20°C° 0.2 mm 2 mps 760 mmHg 79%
    01:00 +19°C° 0.2 mm 2 mps 760 mmHg 81%
    02:00 +19°C° 0.2 mm 2 mps 760 mmHg 83%
    03:00 +20°C° 0.2 mm 1 mps 759 mmHg 86%
    04:00 +20°C° 1 mm 1 mps 760 mmHg 88%
    05:00 +20°C° 1 mm 1 mps 760 mmHg 90%
    06:00 +20°C° 1 mm 1 mps 760 mmHg 93%
    07:00 +20°C° 2.1 mm 1 mps 760 mmHg 93%
    08:00 +20°C° 2.1 mm 1 mps 761 mmHg 93%
    09:00 +20°C° 2.1 mm 1 mps 761 mmHg 94%
    10:00 +21°C° 0.3 mm 1 mps 761 mmHg 90%
    11:00 +21°C° 0.3 mm 1 mps 761 mmHg 87%
    12:00 +22°C° 0.3 mm 1 mps 760 mmHg 84%
    13:00 +22°C° 0.2 mm 1 mps 760 mmHg 85%
    14:00 +22°C° 0.2 mm 1 mps 759 mmHg 86%
    15:00 +22°C° 0.2 mm 1 mps 759 mmHg 87%
    16:00 +21°C° 0 mm 1 mps 759 mmHg 89%
    17:00 +21°C° 0 mm 1 mps 759 mmHg 91%
    18:00 +20°C° 0 mm 1 mps 759 mmHg 93%
    19:00 +20°C° 0 mm 1 mps 760 mmHg 93%
    20:00 +20°C° 0 mm 1 mps 760 mmHg 94%
    21:00 +20°C° 0 mm 1 mps 761 mmHg 95%
    22:00 +20°C° 0 mm 1 mps 760 mmHg 95%
    23:00 +19°C° 0 mm 1 mps 760 mmHg 95%

    19 December, Wednesday

    Time Temperature Precipitation Wind Pressure Humidity
    00:00 +19°C° 0 mm 1 mps 760 mmHg 96%
    01:00 +19°C° 0 mm 1 mps 760 mmHg 95%
    02:00 +17°C° 0 mm 0 mps 760 mmHg 95%
    03:00 +17°C° 0 mm 0 mps 759 mmHg 94%
    04:00 +17°C° 0 mm 0 mps 760 mmHg 95%
    05:00 +17°C° 0 mm 0 mps 760 mmHg 95%
    06:00 +17°C° 0 mm 0 mps 760 mmHg 95%
    07:00 +18°C° 0 mm 0 mps 761 mmHg 91%
    08:00 +21°C° 0 mm 1 mps 761 mmHg 87%
    09:00 +22°C° 0 mm 1 mps 762 mmHg 83%
    10:00 +23°C° 0 mm 1 mps 762 mmHg 78%
    11:00 +25°C° 0 mm 1 mps 761 mmHg 72%
    12:00 +26°C° 0 mm 1 mps 761 mmHg 67%
    13:00 +26°C° 0 mm 1 mps 760 mmHg 64%
    14:00 +26°C° 0 mm 1 mps 760 mmHg 62%
    15:00 +27°C° 0 mm 1 mps 759 mmHg 60%
    16:00 +25°C° 0 mm 1 mps 760 mmHg 65%
    17:00 +24°C° 0 mm 1 mps 760 mmHg 70%
    18:00 +22°C° 0 mm 1 mps 761 mmHg 75%
    19:00 +22°C° 0 mm 1 mps 761 mmHg 76%
    20:00 +21°C° 0 mm 1 mps 762 mmHg 77%
    21:00 +21°C° 0 mm 1 mps 762 mmHg 78%
    22:00 +20°C° 0 mm 1 mps 762 mmHg 79%
    23:00 +20°C° 0 mm 1 mps 762 mmHg 79%
    Show more